Flag for Canada Weather past 2 weeks in Kingston, Ontario, Canada

Now
9 °F

Passing clouds.


Feels Like: -4 °F
Forecast: 7 / 18 °F
Wind: 8 mph from Northwest

Location: Kingston

Current Time: Mar 5, 2015 at 7:18:09 AM

Latest Report: Mar 5, 2015 at 6:00 AM


Visibility: 15 mi

Pressure: 30.22 "Hg

Humidity: 61%

Dew point: -2 °F

Location of KingstonLocation

Historic Weather in Kingston — Graph

°F

Kingston temperature yesterday

Maximum temperature yesterday: 34 °F (at 12:00 PM)
Minimum temperature yesterday: 21 °F (at 11:00 PM)
Average temperature yesterday: 30 °F

Past Weeks' High & Low Weather Summary

 TemperatureHumidityPressure
High34 °F (Mar 4, 12:00 PM)100% (Mar 3, 11:00 PM)30.79 "Hg (Mar 3, 11:00 PM)
Low-13 °F (Feb 27, 7:00 AM)38% (Feb 23, 12:00 PM)29.56 "Hg (Mar 3, 10:00 PM)
Average13 °F69%30.15 "Hg
* Reported Feb 18 6:00 AM — Mar 5 6:00 AM, Kingston, Weather by CustomWeather, © 2015

Note: Actual official high and low records may vary slightly from our data, if they occured in-between our weather recording intervals... More about our weather records

Advertising

Kingston weather history for previous 24 hours

 ConditionsComfort  
Time TempWeatherWind HumidityBarometerVisibility
6:00 AM
Thu, Mar 5
9 °FPassing clouds.8 mph61%30.22 "Hg15 mi
11:00 PM
Wed, Mar 4
21 °FMostly cloudy.9 mph58%29.97 "Hg15 mi
10:00 PM23 °FPartly cloudy.13 mph54%29.99 "Hg15 mi
9:00 PM25 °FPartly cloudy.14 mph50%29.95 "Hg15 mi
8:00 PM27 °FPassing clouds.18 mph54%29.92 "Hg15 mi
7:00 PM27 °FPassing clouds.18 mph59%29.92 "Hg15 mi
5:00 PM30 °FBroken clouds.14 mph59%29.85 "Hg15 mi
4:00 PM32 °FPartly sunny.16 mph60%29.83 "Hg15 mi
3:00 PM32 °FPartly sunny.18 mph75%29.83 "Hg15 mi
2:00 PM34 °FPartly sunny.17 mph65%29.81 "Hg15 mi
1:00 PM34 °FPartly sunny.17 mph56%29.82 "Hg15 mi
12:00 PM34 °FPartly sunny.18 mph56%29.83 "Hg15 mi
11:00 AM32 °FPartly sunny.16 mph60%29.83 "Hg15 mi
10:00 AM32 °FPartly sunny.13 mph64%29.82 "Hg15 mi
9:00 AM30 °FPartly sunny.13 mph75%29.81 "Hg15 mi
8:00 AM30 °FOvercast.7 mph80%29.78 "Hg15 mi
7:00 AM30 °FOvercast.9 mph80%29.77 "Hg15 mi
Weather by CustomWeather, © 2015

See weather overviewHow to use our weather pages